Powrót do katalogu

CZ-6A DEB

AktywnySSO
NORAD 57576·DEBRIS·🇨🇳 China

Wystrzelony Nov 11, 2022 z Taiyuan Satellite Launch Center

Loading…

Następne Przeloty (najbliższe 24 godziny)

TLE

ŚwieżeSource: Space-Track

Epoka: Sep 13, 2026, 23:10 UTC

1 57576U 22151AHT 26256.96592813  .00001384  00000-0  68655-3 0  9994
2 57576  98.8240 264.1724 0040359  58.0855 302.4236 14.18396922176077

Śledź CZ-6A DEB w czasie rzeczywistym z AllMySat

Download on the App Store